Погода в Бердянке

Украина / Харьковская область     49°06′11″N   35°27′01″E
темп.,
°C
ветер,
м/с
пор.,
м/с
влажн.,
%
обл.,
%
осадки,
мм/ч
давл.,
гПа
погр.,
м
13 апреля, вт
вт1300:00+12ю2380100 0.1 102289
03:00+10ююз2381100 0.1 102185
06:00+10ю2285100 0.0 102298
09:00+10ю248397 0.0 1022214
12:00+12ю3367100 0.0 1021733
15:00+13ююв2363100 0.0 1021723
18:00+13юв3464100 0.0 1020615
21:00+11ююв3673100 0.0 1020212
14 апреля, ср
ср1400:00+11юв357899 0.0 1019122
03:00+10ююв2380100 0.0 101962
06:00+9ю238776 0.0 1018100
09:00+11ю227070 0.0 1018498
12:00+15ю445399 0.0 10171379
15:00+16ю4449100 0.1 10161763
18:00+14ююз3458100 0.0 1015470
21:00+11ююв346461 0.0 101668
15 апреля, чт
чт1500:00+9ю357053 0.0 101585
03:00+7ююв34775 0.0 101565
06:00+6юв358492 0.0 101496
09:00+10юв4678100 0.0 1014480
12:00+13ююв565946 0.0 1013952
15:00+11ю3782100 1.0 1013454
18:00+12ююв576898 0.1 1012992
21:00+9ююв228466 0.3 101316
16 апреля, пт
пт1600:00+9ю3780100 0.1 1013361
03:00+7ю58845 0.1 1013355
06:00+4ю47895 0.0 1014290
09:00+8ю456418 0.0 1015986
12:00+9ю555699 0.1 10151203
15:00+11ююв4647100 0.1 10151476
18:00+11ююв465889 0.1 10161120
21:00+8ю227640 0.7 101733
17 апреля, сб
сб1700:00+7з117675 0.0 101710
03:00+6зсз017860 0.0 101810
06:00+5зюз11825 0.0 101810
09:00+10зюз236033 0.0 1019463
12:00+11юз335083 0.1 10191434
15:00+14ююв233599 0.1 10192298
18:00+12зюз555240 0.0 1020767
21:00+9з116163 0.0 102110